Weather History for Canberra, CT

Change the Weather History Date:

Thursday, September 13, 2012

  Actual Average Record
Temperature  
Mean Temperature 44 °F -  
Max Temperature 56 °F 64 °F - ()
Min Temperature 33 °F 40 °F - ()
Degree Days  
Heating Degree Days 20    
Moisture  
Dew Point 39 °F    
Average Humidity 84    
Maximum Humidity 100    
Minimum Humidity 46    
Precipitation  
Precipitation 0.16 in 0.08 in - ()
Sea Level Pressure  
Sea Level Pressure 29.84 in    
Wind  
Wind Speed 6 mph ()    
Max Wind Speed 21 mph    
Max Gust Speed -    
Visibility 5.9 miles    
Events Rain    
T = Trace of Precipitation, MM = Missing Value Source: Averaged Metar Reports

Daily Weather History Graph

Daily Weather History Graph

Search for Another Location

Airport:

Trip Planner

Search our weather history database for the weather conditions in past years. The results will help you decide how hot, cold, wet, or windy it might be!

Date:

Astronomy

Sep. 13, 2012 Rise Set
Actual Time 6:05 AM AEST 5:52 PM AEST
Civil Twilight 5:40 AM AEST 6:18 PM AEST
Nautical Twilight 5:11 AM AEST 6:47 PM AEST
Astronomical Twilight 4:41 AM AEST 7:17 PM AEST
Moon 3:51 AM AEST (9/13) 2:57 PM AEST (9/13)
Length of Visible Light 12h 37m
Length of Day
11h 47m
Waning Crescent, 11% of the Moon is Illuminated
Sep 13
Waning Crescent
Sep 16
New
Sep 23
First Quarter
Sep 30
Full
Oct 8
Last Quarter

Hourly Weather History & Observations

Time (AEST) Temp. Windchill Dew Point Humidity Pressure Visibility Wind Dir Wind Speed Gust Speed Precip Events Conditions
12:00 AM 40 °F - 35 °F 77% 29.88 in - SE 4.6 mph - -  
12:00 AM 39.2 °F 35.9 °F 35.6 °F 87% 29.86 in 6.2 mi SE 4.6 mph - N/A   Unknown
12:30 AM 39.2 °F - 35.6 °F 87% 29.86 in 6.2 mi North - - N/A   Unknown
1:00 AM 38 °F - 35 °F 84% 29.86 in - SE 3.5 mph - -  
1:00 AM 37.4 °F 34.9 °F 35.6 °F 93% 29.86 in 6.2 mi SE 3.5 mph - N/A   Unknown
1:30 AM 37.4 °F 33.8 °F 35.6 °F 93% 29.83 in 6.2 mi SE 4.6 mph - N/A   Unknown
2:00 AM 37.4 °F 32.8 °F 33.8 °F 87% 29.80 in 6.2 mi East 5.8 mph - N/A   Unknown
2:30 AM 37.4 °F 33.8 °F 35.6 °F 93% 29.80 in 6.2 mi SSW 4.6 mph - N/A   Unknown
3:00 AM 36 °F - 34 °F 89% 29.79 in - SSE 3.5 mph - -  
3:00 AM 35.6 °F 32.8 °F 33.8 °F 93% 29.77 in 6.2 mi SSE 3.5 mph - N/A   Unknown
3:30 AM 35.6 °F 30.7 °F 35.6 °F 100% 29.77 in 6.2 mi South 5.8 mph - N/A   Unknown
4:00 AM 37 °F - 35 °F 88% 29.79 in - SSW 5.8 mph - -  
4:00 AM 37.4 °F 32.8 °F 35.6 °F 93% 29.77 in 6.2 mi SSW 5.8 mph - N/A   Unknown
4:30 AM 37.4 °F 31.4 °F 33.8 °F 87% 29.74 in - ESE 8.1 mph - N/A   Clear
5:00 AM 37.4 °F 33.8 °F 33.8 °F 87% 29.74 in - East 4.6 mph - N/A   Clear
5:30 AM 37.4 °F 33.8 °F 33.8 °F 87% 29.77 in 6.2 mi North 4.6 mph - N/A   Mostly Cloudy
6:00 AM 37 °F - 35 °F 88% 29.78 in - WSW 2.3 mph - -  
6:00 AM 37.4 °F - 35.6 °F 93% 29.77 in 6.2 mi WSW 2.3 mph - N/A   Mostly Cloudy
6:30 AM 39.2 °F - 37.4 °F 93% 29.77 in 6.2 mi SSW 1.2 mph - N/A   Mostly Cloudy
7:00 AM 41 °F - 38 °F 84% 29.79 in - SSE 1.2 mph - -  
7:00 AM 41.0 °F - 37.4 °F 87% 29.77 in 6.2 mi SSE 1.2 mph - N/A   Mostly Cloudy
7:30 AM 44.6 °F 40.2 °F 39.2 °F 81% 29.77 in 6.2 mi SE 8.1 mph - N/A   Mostly Cloudy
8:00 AM 46.4 °F 42.4 °F 39.2 °F 76% 29.77 in 6.2 mi SE 8.1 mph - N/A   Mostly Cloudy
8:30 AM 46.4 °F 44.3 °F 41.0 °F 81% 29.80 in 6.2 mi North 4.6 mph - N/A   Mostly Cloudy
9:00 AM 49 °F - 39 °F 59% 29.81 in 6 mi North 5.8 mph - -   Partly Cloudy
9:00 AM 50.0 °F - 39.2 °F 66% 29.80 in 6.2 mi North 5.8 mph - N/A   Mostly Cloudy
9:30 AM 53.6 °F - 39.2 °F 58% 29.80 in 6.2 mi North 8.1 mph - N/A   Mostly Cloudy
10:00 AM 56 °F - 41 °F 46% 29.79 in - North 9.2 mph - -  
10:00 AM 55.4 °F - 41.0 °F 58% 29.77 in 6.2 mi North 9.2 mph - N/A Rain Light Rain
10:30 AM 53.6 °F - 44.6 °F 72% 29.77 in 6.2 mi WNW 11.5 mph - N/A Rain Light Rain
11:00 AM 51.8 °F - 44.6 °F 76% 29.77 in 5.6 mi WNW 10.4 mph - N/A Rain Light Rain
11:30 AM 50.0 °F - 46.4 °F 87% 29.77 in 5.0 mi WNW 10.4 mph - N/A Rain Light Rain
11:49 AM 50.0 °F - 44.6 °F 82% 29.77 in 3.1 mi WNW 11.5 mph - N/A Rain Light Rain
12:00 PM 49 °F - 45 °F 83% 29.80 in 6 mi WNW 9.2 mph - -   Overcast
12:00 PM 48.2 °F - 44.6 °F 87% 29.80 in - WNW 9.2 mph - N/A   Unknown
12:30 PM 50.0 °F - 44.6 °F 82% 29.77 in 6.2 mi NNW 12.7 mph - N/A   Mostly Cloudy
1:00 PM 52 °F - 45 °F 71% 29.78 in - NW 13.8 mph - -  
1:00 PM 51.8 °F - 44.6 °F 76% 29.77 in 6.2 mi NW 13.8 mph - N/A   Scattered Clouds
1:30 PM 53.6 °F - 46.4 °F 77% 29.74 in 6.2 mi North 17.3 mph - N/A   Scattered Clouds
2:00 PM 55.4 °F - 44.6 °F 67% 29.74 in 6.2 mi NNW 18.4 mph - N/A   Scattered Clouds
2:30 PM 53.6 °F - 39.2 °F 58% 29.74 in 6.2 mi NW 20.7 mph - N/A   Scattered Clouds
3:00 PM 51 °F - 42 °F 61% 29.79 in - South 16.1 mph - -   Overcast
3:00 PM 51.8 °F - 41.0 °F 67% 29.77 in 6.2 mi South 16.1 mph - N/A   Scattered Clouds
3:30 PM 48.2 °F - 37.4 °F 66% 29.80 in 6.2 mi South 13.8 mph - N/A   Mostly Cloudy
3:51 PM 44.6 °F 38.1 °F 41.0 °F 87% 29.83 in 3.7 mi South 13.8 mph - N/A Rain Light Rain Showers
4:00 PM 44 °F - 40 °F 83% 29.85 in - South 16.1 mph - -  
4:00 PM 44.6 °F 37.4 °F 41.0 °F 87% 29.83 in 3.1 mi South 16.1 mph - N/A Rain Light Rain Showers
4:30 PM 42.8 °F - 39.2 °F 87% 29.86 in 5.0 mi SE 2.3 mph - N/A Rain Light Rain Showers
5:00 PM 44.6 °F 43.1 °F 39.2 °F 81% 29.86 in 6.2 mi WSW 3.5 mph - N/A Rain Light Rain Showers
5:30 PM 42.8 °F 38.0 °F 41.0 °F 93% 29.89 in 6.2 mi NE 8.1 mph - N/A   Mostly Cloudy
6:00 PM 41 °F - 39 °F 89% 29.90 in - North 4.6 mph - -  
6:00 PM 41.0 °F 38.0 °F 39.2 °F 93% 29.89 in 6.2 mi North 4.6 mph - N/A   Scattered Clouds
6:30 PM 41.0 °F 38.0 °F 39.2 °F 93% 29.92 in 6.2 mi NNE 4.6 mph - N/A   Scattered Clouds
7:00 PM 41 °F - 39 °F 90% 29.94 in - North 5.8 mph - -  
7:00 PM 41.0 °F 37.1 °F 39.2 °F 93% 29.92 in 6.2 mi North 5.8 mph - N/A   Partly Cloudy
7:30 PM 41.0 °F 37.1 °F 39.2 °F 93% 29.95 in 6.2 mi North 5.8 mph - N/A   Mostly Cloudy
8:00 PM 41.0 °F 38.0 °F 39.2 °F 93% 29.95 in 6.2 mi NE 4.6 mph - N/A   Overcast
8:30 PM 41.0 °F - 39.2 °F 93% 29.98 in 6.2 mi SSE 1.2 mph - N/A   Overcast
8:53 PM 42.8 °F 37.5 °F 41.0 °F 93% 29.98 in 6.2 mi West 9.2 mph - N/A   Overcast
9:00 PM 41 °F - 39 °F 92% 29.99 in - WNW 8.1 mph - -   Overcast
9:00 PM 41.0 °F 35.8 °F 39.2 °F 93% 29.98 in 6.2 mi WNW 8.1 mph - N/A   Overcast
9:04 PM 41.0 °F 37.1 °F 39.2 °F 93% 29.98 in 6.2 mi NW 5.8 mph - N/A   Overcast
9:30 PM 39.2 °F 37.0 °F 39.2 °F 100% 29.98 in 6.2 mi NE 3.5 mph - N/A   Mostly Cloudy
10:00 PM 37 °F - 37 °F 98% 30.00 in - NNE 4.6 mph - -  
10:00 PM 37.4 °F 33.8 °F 37.4 °F 100% 29.98 in 6.2 mi NNE 4.6 mph - N/A   Unknown
10:30 PM 35.6 °F 31.7 °F 33.8 °F 93% 29.98 in 6.2 mi East 4.6 mph - N/A   Unknown
11:00 PM 33.8 °F 28.6 °F 33.8 °F 100% 29.98 in 6.2 mi East 5.8 mph - N/A   Unknown
11:30 PM 33.8 °F 30.8 °F 33.8 °F 100% 30.01 in 1.7 mi East 3.5 mph - N/A   Unknown